Showing default

QIANFAN-83, 63169

Orbit data source: Space-Track

QIANFAN-83, 63169 is a Chinese payload satellite in LEO that was launched on Tue, 11 Mar 2025 UTC via a CHANG ZHENG 8 launch vehicle from the Wenchang Satellite Launch Center (WSC). Payload-class satellites include a variety of spacecraft equipped with specific instruments for various scientific and technological missions. These include communications satellites like Starlink; space stations such as the ISS; scientific satellites like the Hubble; Earth observation satellites from companies like Planet Labs, Umbra, and HawkEye 360; GPS; miniature CubeSats for education and research; and military/defense satellites.

Loading next visibility...
Identifier
63169, 2025-046L
Orbit
LEO
Country
Flag of CNCN / PRC
Related business
Manufacturer
GESIH
Mission
Operational Commercial Communications
Bus & Motor
QIANFAN, Unknown motor
Mass
267 kg wet, ~267 kg dry
Launch date (UTC)
2025-03-11 (1 year ago)
Launch vehicle
CHANG ZHENG 8
Launch site
Wenchang Satellite Launch Center (WSC)
Object type
Payload
Rocket body
Debris
Shape & HBR
Box + 1 Pan, 14.5 m
Radar Cross Section
13.200 m², Large (>1 m²)

Expand to show TLE details & history
Last TLE update: 14 hours ago

TLE from 14 hours ago
0 QIANFAN-83
1 63169U 25046L   26171.38456361  .00000143  00000-0  16980-3 0  9990
2 63169  88.9716 299.6495 0011955 273.5337  86.4453 13.62043103 73419
Epoch: 2026-06-20T09:13Z
TLE epoch observation values (Epoch: 2026-06-20T09:13:46.295Z)
Latitude
-0.00005°
Longitude
-107.39335°
Altitude
1,030.707 km
Speed
7.337 km/s
True Right ascension
19h 58m 35s
True Declination
0° 00' 00"
Sunlit
Object was in full shadow at epoch
Visualization orbit readout
Latitude
Unknown
Longitude
Unknown
Altitude
Unknown
Speed
Unknown
Apparent Right ascension
Unknown
Apparent Declination
Unknown
Sunlit
N/A
Visualization observer readout
Local Sidereal Time
10:19:39
Azimuth
Unknown
Elevation
Unknown
Doppler factor
Unknown
Orbital elements
Apogee altitude
1,034.162 km
Perigee altitude
1,016.461 km
Semi-major axis
7,403.448 km
Eccentricity
0.0012
Inclination
88.9716°
RAAN
299.6495°
Arg. of periapsis
273.5337°
True anomaly
86.58204°
Mean anomaly
86.4453°
Eccentric anomaly
86.51367°
Mean motion
3.40716 °/min
Orbital period
105.66 mins
BSTAR
0.0001698
Loading maneuver chart data...
Computing Atmospheric mass density...
Loading historical data...
Loading historical data...
Loading historical data...
Loading historical data...
Loading historical data...
Loading historical data...
Loading historical data...

Documentation

Showing up to 5 results
|